Weather in Kurkiyoki

Russia / Republic of Karelia     61°18′05″N   29°53′24″E
temp.,
°C
wind,
m/s
gust,
m/s
humid.,
%
clouds,
%
prec.,
mm/h
press.,
hPa
HPBL,
m
28 july, wed
wed2800:00+18e347773 0.0 101542
03:00+17se238241 0.0 101437
06:00+17e3382100 0.0 101369
09:00+18e3482100 0.0 1012142
12:00+18e4578100 0.0 1011190
15:00+19e4476100 0.1 1009188
18:00+17ene3396100 3.6 100864
21:00+18n3494100 5.5 100770
29 july, thu
thu2900:00+16e3696100 0.2 1006159
03:00+16ese3494100 0.8 1004138
06:00+16sw12935 0.0 100373
09:00+18s228875 1.0 100198
12:00+19sw71083100 2.9 1001436
15:00+18sw61183100 2.9 1000500
18:00+22sw566086 0.0 998585
21:00+20sw58725 0.0 998111
30 july, fri
fri3000:00+18sw5108157 0.0 998257
03:00+17sw6128189 0.0 998403
06:00+17sw6118793 0.0 998543
09:00+19sw696716 0.0 998688
12:00+20sw7105516 0.0 997788
15:00+19ssw81169100 0.4 997910
18:00+19sw7116699 0.1 997776
21:00+18ssw466583 0.1 995159
31 july, sat
sat3100:00+16s410735 0.0 995394
03:00+15s51084100 0.0 994452
06:00+15sse5987100 0.4 993617
09:00+15sse348569 0.6 993425
12:00+17w137790 0.2 995508
15:00+18wsw377875 1.3 997379
18:00+20w476791 0.9 998253
21:00+18sw447120 0.9 99843
1 august, sun
sun100:00+15sw359155 0.0 999128
03:00+15sw379175 0.0 999168
06:00+15ssw3592100 0.1 998152
09:00+17sse348783 1.8 997204
12:00+20sw576658 4.6 997463
15:00+19sw7975100 5.3 997701
18:00+18sw7128786 3.3 997723
21:00+17sw611886 3.8 997440